When you browse on this site, cookies collect data to enhance your experience and personalize the content and advertising you see.
Visit our Privacy Policy to learn more. By continuing to use the site, you agree to this use of cookies and data.
  • In Switzerland
  • List of Countries
  • For 7 days
  • Water Temperature
  • Satellite Maps
  • Weather Map
  • Weather Widgets
  • user-avatar
    Login

    Hourly Weather Plav'ya

    Today, 21 April, Sunday

    Time Temperature Precipitation Wind Pressure Humidity
    00:00 +10°C° 0 mm 2 mps 735 mmHg 83%
    01:00 +10°C° 0 mm 2 mps 735 mmHg 82%
    02:00 +11°C° 0 mm 1 mps 734 mmHg 80%
    03:00 +11°C° 0 mm 1 mps 734 mmHg 80%
    04:00 +10°C° 0 mm 1 mps 734 mmHg 82%
    05:00 +9°C° 0 mm 2 mps 733 mmHg 84%
    06:00 +9°C° 0 mm 2 mps 733 mmHg 86%
    07:00 +9°C° 0 mm 2 mps 733 mmHg 90%
    08:00 +10°C° 0 mm 2 mps 733 mmHg 90%
    09:00 +12°C° 0 mm 2 mps 733 mmHg 88%
    10:00 +13°C° 0 mm 1 mps 733 mmHg 88%
    11:00 +12°C° 0.3 mm 4 mps 733 mmHg 90%
    12:00 +14°C° 0.3 mm 1 mps 732 mmHg 80%
    13:00 +11°C° 1 mm 6 mps 732 mmHg 97%
    14:00 +14°C° 0.7 mm 2 mps 732 mmHg 86%
    15:00 +10°C° 2.2 mm 5 mps 731 mmHg 97%
    16:00 +13°C° 2.6 mm 2 mps 731 mmHg 94%
    17:00 +11°C° 1.9 mm 3 mps 731 mmHg 99%
    18:00 +12°C° 0.7 mm 2 mps 731 mmHg 97%
    19:00 +12°C° 0.1 mm 1 mps 730 mmHg 92%
    20:00 +10°C° 0 mm 2 mps 731 mmHg 92%
    21:00 +11°C° 0 mm 1 mps 731 mmHg 93%
    22:00 +10°C° 0 mm 1 mps 730 mmHg 91%
    23:00 +9°C° 0 mm 1 mps 730 mmHg 90%

    Tomorrow, 22 April, Monday

    Time Temperature Precipitation Wind Pressure Humidity
    00:00 +7°C° 0 mm 2 mps 730 mmHg 95%
    01:00 +7°C° 0 mm 2 mps 730 mmHg 93%
    02:00 +8°C° 0 mm 1 mps 730 mmHg 89%
    03:00 +8°C° 0 mm 1 mps 730 mmHg 85%
    04:00 +9°C° 0 mm 1 mps 730 mmHg 82%
    05:00 +9°C° 0 mm 1 mps 730 mmHg 79%
    06:00 +9°C° 0 mm 1 mps 730 mmHg 76%
    07:00 +9°C° 0 mm 1 mps 730 mmHg 76%
    08:00 +10°C° 0 mm 1 mps 730 mmHg 85%
    09:00 +10°C° 0 mm 2 mps 730 mmHg 84%
    10:00 +13°C° 0 mm 2 mps 731 mmHg 80%
    11:00 +14°C° 0 mm 2 mps 731 mmHg 77%
    12:00 +14°C° 0 mm 2 mps 731 mmHg 75%
    13:00 +15°C° 0 mm 2 mps 730 mmHg 76%
    14:00 +10°C° 0.7 mm 6 mps 730 mmHg 99%
    15:00 +12°C° 1.9 mm 2 mps 731 mmHg 94%
    16:00 +12°C° 0.2 mm 4 mps 730 mmHg 92%
    17:00 +12°C° 0.1 mm 5 mps 730 mmHg 91%
    18:00 +13°C° 0 mm 5 mps 731 mmHg 89%
    19:00 +12°C° 0 mm 5 mps 731 mmHg 90%
    20:00 +10°C° 0 mm 6 mps 731 mmHg 88%
    21:00 +9°C° 0 mm 6 mps 731 mmHg 87%
    22:00 +8°C° 0 mm 6 mps 731 mmHg 85%
    23:00 +8°C° 0 mm 6 mps 732 mmHg 83%

    Day after tomorrow, 23 April, Tuesday

    Time Temperature Precipitation Wind Pressure Humidity
    00:00 +7°C° 0 mm 6 mps 732 mmHg 84%
    01:00 +7°C° 0 mm 6 mps 732 mmHg 85%
    02:00 +5°C° 0 mm 6 mps 733 mmHg 86%
    03:00 +5°C° 0 mm 6 mps 732 mmHg 85%
    04:00 +5°C° 0 mm 6 mps 732 mmHg 83%
    05:00 +5°C° 0 mm 6 mps 732 mmHg 81%
    06:00 +5°C° 0 mm 6 mps 732 mmHg 79%
    07:00 +6°C° 0 mm 7 mps 732 mmHg 80%
    08:00 +6°C° 0 mm 7 mps 732 mmHg 84%
    09:00 +8°C° 0 mm 7 mps 732 mmHg 83%
    10:00 +10°C° 0 mm 7 mps 733 mmHg 82%
    11:00 +11°C° 0 mm 8 mps 733 mmHg 81%
    12:00 +11°C° 0 mm 8 mps 733 mmHg 80%
    13:00 +12°C° 0 mm 8 mps 733 mmHg 81%
    14:00 +12°C° 0 mm 8 mps 733 mmHg 82%
    15:00 +11°C° 0.1 mm 7 mps 733 mmHg 94%
    16:00 +10°C° 0.6 mm 8 mps 732 mmHg 100%
    17:00 +10°C° 1.8 mm 8 mps 732 mmHg 100%
    18:00 +9°C° 1.2 mm 7 mps 732 mmHg 100%
    19:00 +9°C° 0.5 mm 7 mps 731 mmHg 100%
    20:00 +8°C° 0.7 mm 7 mps 732 mmHg 100%
    21:00 +8°C° 1.7 mm 7 mps 732 mmHg 100%
    22:00 +8°C° 1 mm 7 mps 732 mmHg 100%
    23:00 +8°C° 0.5 mm 7 mps 732 mmHg 100%

    24 April, Wednesday

    Time Temperature Precipitation Wind Pressure Humidity
    00:00 +8°C° 0.2 mm 7 mps 732 mmHg 100%
    01:00 +8°C° 0.2 mm 7 mps 732 mmHg 99%
    02:00 +8°C° 3.4 mm 7 mps 731 mmHg 100%
    03:00 +8°C° 0.3 mm 7 mps 732 mmHg 100%
    04:00 +8°C° 0.1 mm 7 mps 732 mmHg 100%
    05:00 +8°C° 0 mm 7 mps 732 mmHg 99%
    06:00 +8°C° 0.2 mm 7 mps 732 mmHg 99%
    07:00 +8°C° 0.5 mm 6 mps 733 mmHg 100%
    08:00 +8°C° 0.4 mm 6 mps 733 mmHg 100%
    09:00 +9°C° 0.2 mm 6 mps 733 mmHg 100%
    10:00 +10°C° 0 mm 7 mps 734 mmHg 98%
    11:00 +13°C° 0 mm 6 mps 734 mmHg 97%
    12:00 +14°C° 0 mm 6 mps 734 mmHg 96%
    13:00 +15°C° 0 mm 5 mps 734 mmHg 96%
    14:00 +16°C° 0 mm 5 mps 734 mmHg 95%

    25 April, Thursday

    Time Temperature Precipitation Wind Pressure Humidity

    26 April, Friday

    Time Temperature Precipitation Wind Pressure Humidity
    Show more